Weather reports worldwide

Advertisment
St. James's Park, United Kingdom (3770): temperature & dewpoint: 20.05.2019 01:00:00 - 26.05.2019 01:00:00 (BST)St. James's Park, United Kingdom (3770): temperature -20cm & temperature -100cm: 20.05.2019 01:00:00 - 26.05.2019 01:00:00 (BST)St. James's Park, United Kingdom (3770): precipitation: 20.05.2019 01:00:00 - 26.05.2019 01:00:00 (BST)
Date & Time tt [°C] td [°C] tt -20cm [°C] tt -100cm [°C] rr [mm]
26.05.2019 01:00:00 - - - - -
26.05.2019 00:00:00 18,8 11,1 - - 0,0
25.05.2019 23:00:00 19,1 11,0 - - 0,0
25.05.2019 22:00:00 19,6 10,4 - - 0,0
25.05.2019 21:00:00 20,4 10,1 - - 0,0
25.05.2019 20:00:00 21,0 8,7 - - 0,0
25.05.2019 19:00:00 21,4 9,1 - - 0,0
25.05.2019 18:00:00 22,1 7,2 - - 0,0
25.05.2019 17:00:00 23,3 7,4 - - 0,0
25.05.2019 16:00:00 22,4 6,5 - - 0,0
25.05.2019 15:00:00 23,2 8,3 - - 0,0
25.05.2019 14:00:00 22,7 9,5 - - 0,0
25.05.2019 13:00:00 21,4 10,2 - - 0,0
25.05.2019 12:00:00 19,7 10,0 - - 0,0
25.05.2019 11:00:00 18,5 10,9 - - 0,0
25.05.2019 10:00:00 16,8 10,8 16,0 13,9 0,0
25.05.2019 09:00:00 15,7 10,2 - - 0,0
25.05.2019 08:00:00 15,4 10,4 - - 0,0
25.05.2019 07:00:00 14,8 10,4 - - 0,0
25.05.2019 06:00:00 14,4 9,7 - - 0,0
25.05.2019 05:00:00 14,3 9,6 - - 0,0
25.05.2019 04:00:00 15,1 9,0 - - 0,0
25.05.2019 03:00:00 15,4 9,4 - - 0,0
25.05.2019 02:00:00 15,2 10,2 - - 0,0
25.05.2019 01:00:00 15,3 11,7 - - 0,0
25.05.2019 00:00:00 15,0 12,9 - - 0,0
24.05.2019 23:00:00 14,2 13,0 - - 0,0
24.05.2019 22:00:00 15,2 13,7 - - 0,8
24.05.2019 21:00:00 17,5 12,4 - - 0,4
24.05.2019 20:00:00 19,0 9,5 - - 0,0
24.05.2019 19:00:00 19,0 9,9 - - 0,0
24.05.2019 18:00:00 19,4 9,2 - - 0,0
24.05.2019 17:00:00 20,3 8,9 - - 0,0
24.05.2019 16:00:00 20,8 7,9 - - 0,0
24.05.2019 15:00:00 21,1 7,5 - - 0,0
24.05.2019 14:00:00 22,3 6,9 - - 0,0
24.05.2019 13:00:00 20,9 7,0 - - 0,0
24.05.2019 12:00:00 20,6 7,7 - - 0,0
24.05.2019 11:00:00 19,4 7,5 - - 0,0
24.05.2019 10:00:00 18,0 8,0 15,7 13,7 0,0
24.05.2019 09:00:00 16,9 8,9 - - 0,0
24.05.2019 08:00:00 15,5 8,7 - - 0,0
24.05.2019 07:00:00 13,5 7,2 - - 0,0
24.05.2019 06:00:00 12,7 7,0 - - 0,0
24.05.2019 05:00:00 13,0 6,8 - - 0,0
24.05.2019 04:00:00 13,8 6,7 - - 0,0
24.05.2019 03:00:00 14,0 7,2 - - 0,0
24.05.2019 02:00:00 12,7 6,9 - - 0,0
24.05.2019 01:00:00 13,5 6,5 - - 0,0
24.05.2019 00:00:00 14,8 5,7 - - 0,0
23.05.2019 23:00:00 15,4 5,1 - - 0,0
23.05.2019 22:00:00 17,6 5,5 - - 0,0
23.05.2019 21:00:00 18,2 4,9 - - 0,0
23.05.2019 20:00:00 20,0 4,0 - - 0,0
23.05.2019 19:00:00 20,8 4,3 - - 0,0
23.05.2019 18:00:00 22,9 6,0 - - 0,0
23.05.2019 17:00:00 23,1 5,1 - - 0,0
23.05.2019 16:00:00 23,5 5,3 - - 0,0
23.05.2019 15:00:00 23,1 6,4 - - 0,0
23.05.2019 14:00:00 23,2 7,2 - - 0,0
23.05.2019 13:00:00 22,1 6,6 - - 0,0
23.05.2019 12:00:00 21,3 6,3 - - 0,0
23.05.2019 11:00:00 20,1 7,4 - - 0,0
23.05.2019 10:00:00 18,1 7,5 15,2 13,7 0,0
23.05.2019 09:00:00 15,6 6,8 - - 0,0
23.05.2019 08:00:00 13,5 6,3 - - 0,0
23.05.2019 07:00:00 11,9 6,3 - - 0,0
23.05.2019 06:00:00 11,1 5,8 - - 0,0
23.05.2019 05:00:00 10,7 5,3 - - 0,0
23.05.2019 04:00:00 10,8 4,9 - - 0,0
23.05.2019 03:00:00 11,9 5,1 - - 0,0
23.05.2019 02:00:00 12,5 5,1 - - 0,0
23.05.2019 01:00:00 13,0 5,2 - - 0,0
23.05.2019 00:00:00 14,1 5,4 - - 0,0
22.05.2019 23:00:00 15,1 6,4 - - 0,0
22.05.2019 22:00:00 16,1 5,9 - - 0,0
22.05.2019 21:00:00 17,6 5,8 - - 0,0
22.05.2019 20:00:00 18,5 5,8 - - 0,0
22.05.2019 19:00:00 19,6 5,1 - - 0,0
22.05.2019 18:00:00 19,5 5,3 - - 0,0
22.05.2019 17:00:00 20,5 5,5 - - 0,0
22.05.2019 16:00:00 21,0 4,8 - - 0,0
22.05.2019 15:00:00 20,7 5,6 - - 0,0
22.05.2019 14:00:00 19,8 5,4 - - 0,0
22.05.2019 13:00:00 19,4 4,8 - - 0,0
22.05.2019 12:00:00 19,0 3,9 - - 0,0
22.05.2019 11:00:00 17,7 4,8 - - 0,0
22.05.2019 10:00:00 15,8 4,7 15,0 13,4 0,0
22.05.2019 09:00:00 15,1 5,2 - - 0,0
22.05.2019 08:00:00 13,2 3,9 - - 0,0
22.05.2019 07:00:00 12,6 3,7 - - 0,0
22.05.2019 06:00:00 11,9 3,0 - - 0,0
22.05.2019 05:00:00 12,1 2,7 - - 0,0
22.05.2019 04:00:00 12,5 2,6 - - 0,0
22.05.2019 03:00:00 13,1 3,5 - - 0,0
22.05.2019 02:00:00 12,2 3,3 - - 0,0
22.05.2019 01:00:00 13,7 1,1 - - 0,0
22.05.2019 00:00:00 15,1 3,4 - - 0,0
21.05.2019 23:00:00 15,7 4,9 - - 0,0
21.05.2019 22:00:00 16,9 5,7 - - 0,0
21.05.2019 21:00:00 18,0 5,6 - - 0,0
21.05.2019 20:00:00 18,9 5,5 - - 0,0
21.05.2019 19:00:00 19,6 5,0 - - 0,0
21.05.2019 18:00:00 19,2 5,0 - - 0,0
21.05.2019 17:00:00 20,1 4,0 - - 0,0
21.05.2019 16:00:00 20,0 4,9 - - 0,0
21.05.2019 15:00:00 20,3 6,9 - - 0,0
21.05.2019 14:00:00 19,8 5,2 - - 0,0
21.05.2019 13:00:00 19,4 4,9 - - 0,0
21.05.2019 12:00:00 18,3 3,8 - - 0,0
21.05.2019 11:00:00 17,5 5,3 - - 0,0
21.05.2019 10:00:00 16,2 5,8 14,5 13,4 0,0
21.05.2019 09:00:00 15,1 7,0 - - 0,0
21.05.2019 08:00:00 12,5 7,2 - - 0,0
21.05.2019 07:00:00 11,4 6,2 - - 0,0
21.05.2019 06:00:00 11,0 6,7 - - 0,0
21.05.2019 05:00:00 11,2 6,6 - - 0,0
21.05.2019 04:00:00 12,0 6,8 - - 0,0
21.05.2019 03:00:00 13,1 7,5 - - 0,0
21.05.2019 02:00:00 13,3 7,8 - - 0,0
21.05.2019 01:00:00 14,5 7,9 - - 0,0
21.05.2019 00:00:00 14,8 8,0 - - 0,0
20.05.2019 23:00:00 15,2 8,3 - - 0,0
20.05.2019 22:00:00 15,6 8,6 - - 0,0
20.05.2019 21:00:00 17,3 8,0 - - 0,0
20.05.2019 20:00:00 18,0 8,1 - - 0,0
20.05.2019 19:00:00 18,7 7,3 - - 0,0
20.05.2019 18:00:00 19,3 7,4 - - 0,0
20.05.2019 17:00:00 18,9 7,3 - - 0,0
20.05.2019 16:00:00 19,0 8,0 - - 0,0
20.05.2019 15:00:00 18,5 8,4 - - 0,0
20.05.2019 14:00:00 18,9 8,3 - - 0,0
20.05.2019 13:00:00 19,3 10,0 - - 0,0
20.05.2019 12:00:00 17,7 8,4 - - 0,0
20.05.2019 11:00:00 17,9 11,5 - - 0,0
20.05.2019 10:00:00 15,8 10,2 14,4 13,2 0,0
20.05.2019 09:00:00 14,9 9,9 - - 0,2
20.05.2019 08:00:00 13,9 9,5 - - 0,0
20.05.2019 07:00:00 13,3 10,2 - - 0,0
20.05.2019 06:00:00 12,7 10,1 - - 0,0
20.05.2019 05:00:00 12,4 9,5 - - 0,0
20.05.2019 04:00:00 12,7 10,3 - - 0,0
20.05.2019 03:00:00 13,0 10,1 - - 0,0
20.05.2019 02:00:00 13,6 9,7 - - 0,0
20.05.2019 01:00:00 14,2 10,5 - - 0,0

tt = temperature
td = dewpoint
tt -20cm = temperature -20cm
tt -100cm = temperature -100cm
rr = precipitation

Next stations